星链-5730 (STARLINK-5730 )

导读

STARLINK-5730是美国太空探索技术公司于2023年2月12日发射的星链(Starlink)低轨互联网卫星,运行于约550公里近地轨道。它配备相控阵天线与氩气推进系统,可支持高带宽宽带传输,通过星间激光互联构建全球卫星互联网,为全球用户提供低延迟高速网络服务,属于星链星座组网的组成部分。

基本信息
目录编号:
55611
目录名称:
STARLINK-5730
国际标识:
2023-020AU
轨道中心:
EARTH
卫星名称:
星链-5730
卫星全名:
星链-5730 (STARLINK-5730 )
卫星状态:
在轨 (已飞行1300 天)
发射日期:
2023-02-12 UTC
国别 :
美国 (US)
星等 :
--
轨道信息
数据来源 国际轨道数据
星历时间: 2026-09-04T06:09:08+0800
15小时前
查看轨道信息
半长轴: 6861.2km
偏心率: 0.000143
轨道倾角: 43.003°
近地点辐角 257.006°
升交点赤经 68.006°
平近点角 103.063°
近地点: 482.081km
远地点: 484.045km
周期: 94.267分钟
每日圈数: 15.275754
详细信息
固有亮度:
5
最大亮度:
2.5
卫星平台:
Starlink v1.5
覆盖范围:
全球
运营商:
太空探索技术公司
运营商所在国:
美国
制造商(研发单位):
太空探索技术公司
制造商所在国:
美国
使用方式:
暂无
卫星简介
星链(Starlink)计划是由太空探索技术公司(SpaceX)提出的一个巨型低轨卫星互联网星座项目,计划在2019年至2024年间在太空搭建由约1.2万颗卫星组成的“星链”网络,其中1584颗将部署在地球上空550千米处的近地轨道,并从2020年开始工作。该卫星仍在工作。
2D轨道图
3D轨道图
轨道高度分析图
轨道倾角分析图
轨道综合分析图
查看轨道综合分析图
交会数据列表
事件ID 空间交会对象 最接近时刻(TCA) 交会距离 交会风险概率(CRP) 交会风险指数(CRI) 操作
CDM_260905-073505-561106-377521
2026-09-05T
07:35:41+0000
0.854 km
远距离
2.18239E-5 中风险 0.62
CDM_260905-020605-561106-377521
2026-09-05T
02:06:08+0000
1.004 km
极远距离
1.255706E-5 中风险 0.57
CDM_260905-003105-561106-377521
2026-09-05T
00:31:59+0000
1.126 km
极远距离
8.4532E-6 低风险 0.54
CDM_260906-091603-787505-561121
2026-09-06T
09:16:32+0000
2.067 km
极远距离
2.463312E-6 低风险 0.43
CDM_260905-090905-561106-377521
2026-09-05T
09:09:50+0000
1.730 km
极远距离
2.137817E-6 低风险 0.42